Terminal Aerodrome Forecast
Issued by NWS St Louis, MO

Home | Current Version | Previous Version | Text Only | Print | Product List | Glossary On
Versions: 1 2 3 4 5 6 7 8 9 10 11 12 13 14 15 16 17 18 19 20 21 22 23 24 25 26
000
FTUS43 KLSX 050520
TAFSTL
TAF
KSTL 050520Z 0506/0612 09005KT P6SM SCT030 OVC150
     FM050900 10006KT 6SM SHRA OVC030
     FM051900 12009KT P6SM BKN030
     FM052300 11007KT 6SM SHRA VCTS OVC030CB=

USA.gov is the U.S. government's official web portal to all federal, state and local government web resources and services.